Weather History for Camdenton, MO

Change the Weather History Date:

Tuesday, January 29, 2013

  Actual Average (KAIZ) Record (KAIZ)
Temperature  
Mean Temperature 59 °F -  
Max Temperature 68 °F 40 °F 69 °F (2013)
Min Temperature 50 °F 23 °F 1 °F (2014)
Degree Days  
Heating Degree Days 6    
Growing Degree Days 9 (Base 50)    
Moisture  
Dew Point 55 °F    
Average Humidity 86    
Maximum Humidity 100    
Minimum Humidity 68    
Precipitation  
Precipitation 1.69 in - - ()
Sea Level Pressure  
Sea Level Pressure 29.62 in    
Wind  
Wind Speed 14 mph (SE)    
Max Wind Speed 24 mph    
Max Gust Speed 30 mph    
Visibility 9 miles    
Events Rain , Thunderstorm    
Averages and records for this station are not official NWS values.
T = Trace of Precipitation, MM = Missing Value Source: NWS Daily Summary

Daily Weather History Graph

Daily Weather History Graph

Search for Another Location

Airport:

Trip Planner

Search our weather history database for the weather conditions in past years. The results will help you decide how hot, cold, wet, or windy it might be!

Date:

Astronomy

Jan. 29, 2013 Rise Set
Actual Time 7:17 AM CST 5:30 PM CST
Civil Twilight 6:49 AM CST 5:58 PM CST
Nautical Twilight 6:17 AM CST 6:30 PM CST
Astronomical Twilight 5:46 AM CST 7:01 PM CST
Moon 8:23 PM CST (1/29) 8:18 AM CST (1/29)
Length of Visible Light 11h 09m
Length of Day
10h 13m
Waning Gibbous, 93% of the Moon is Illuminated
Jan 29
Waning Gibbous
Feb 3
Last Quarter
Feb 10
New
Feb 17
First Quarter
Feb 25
Full

Hourly Weather History & Observations

Time (CST) Temp. Dew Point Humidity Pressure Visibility Wind Dir Wind Speed Gust Speed Precip Events Conditions
12:15 AM 64.4 °F 57.2 °F 77% 29.80 in 10.0 mi SSE 20.7 mph 26.5 mph N/A   Overcast
12:35 AM 64.4 °F 57.2 °F 77% 29.80 in 10.0 mi SSE 15.0 mph 29.9 mph N/A   Overcast
12:55 AM 64.4 °F 57.2 °F 77% 29.79 in 10.0 mi SSE 17.3 mph 24.2 mph N/A   Scattered Clouds
1:15 AM 64.4 °F 57.2 °F 77% 29.78 in 10.0 mi SSE 15.0 mph 21.9 mph N/A   Clear
1:35 AM 64.4 °F 57.2 °F 77% 29.78 in 10.0 mi SSE 15.0 mph 24.2 mph N/A   Scattered Clouds
1:55 AM 64.4 °F 57.2 °F 77% 29.77 in 10.0 mi SSE 16.1 mph 21.9 mph N/A   Scattered Clouds
2:15 AM 64.4 °F 57.2 °F 77% 29.77 in 10.0 mi SSE 16.1 mph 23.0 mph N/A   Scattered Clouds
2:35 AM 64.4 °F 57.2 °F 77% 29.77 in 10.0 mi SSE 16.1 mph 21.9 mph N/A   Scattered Clouds
2:55 AM 62.6 °F 57.2 °F 82% 29.76 in 10.0 mi SSE 16.1 mph 21.9 mph N/A   Clear
3:15 AM 64.4 °F 57.2 °F 77% 29.77 in 10.0 mi SSE 15.0 mph 23.0 mph N/A   Mostly Cloudy
3:35 AM 64.4 °F 57.2 °F 77% 29.76 in 10.0 mi SSE 15.0 mph 24.2 mph N/A   Overcast
3:55 AM 64.4 °F 57.2 °F 77% 29.75 in 10.0 mi SSE 15.0 mph 25.3 mph N/A   Overcast
4:15 AM 64.4 °F 57.2 °F 77% 29.75 in 10.0 mi SSE 19.6 mph 27.6 mph N/A   Mostly Cloudy
4:35 AM 64.4 °F 57.2 °F 77% 29.74 in 10.0 mi South 19.6 mph 27.6 mph N/A   Mostly Cloudy
5:15 AM 64.4 °F 57.2 °F 77% 29.73 in 10.0 mi SSE 16.1 mph 24.2 mph N/A   Mostly Cloudy
5:35 AM 64.4 °F 57.2 °F 77% 29.73 in 10.0 mi SSE 16.1 mph 24.2 mph N/A   Overcast
5:55 AM 64.4 °F 57.2 °F 77% 29.72 in 10.0 mi SSE 21.9 mph 28.8 mph N/A   Overcast
6:15 AM 64.4 °F 57.2 °F 77% 29.72 in 10.0 mi SSE 17.3 mph 25.3 mph N/A   Overcast
6:35 AM 64.4 °F 57.2 °F 77% 29.72 in 10.0 mi SSE 16.1 mph - N/A   Scattered Clouds
6:55 AM 64.4 °F 57.2 °F 77% 29.71 in 10.0 mi SSE 12.7 mph 21.9 mph N/A   Scattered Clouds
7:15 AM 64.4 °F 57.2 °F 77% 29.71 in 10.0 mi SSE 12.7 mph - N/A   Scattered Clouds
7:35 AM 62.6 °F 57.2 °F 82% 29.70 in 10.0 mi SSE 11.5 mph 17.3 mph N/A   Overcast
7:55 AM 64.4 °F 57.2 °F 77% 29.70 in 10.0 mi SSE 11.5 mph 19.6 mph N/A   Overcast
8:15 AM 64.4 °F 55.4 °F 73% 29.69 in 10.0 mi SSE 9.2 mph 19.6 mph N/A   Mostly Cloudy
8:35 AM 64.4 °F 57.2 °F 77% 29.69 in 10.0 mi SSE 16.1 mph 21.9 mph N/A   Scattered Clouds
8:55 AM 64.4 °F 57.2 °F 77% 29.69 in 10.0 mi SSE 17.3 mph 23.0 mph N/A   Scattered Clouds
9:15 AM 64.4 °F 57.2 °F 77% 29.68 in 10.0 mi SSE 10.4 mph 25.3 mph N/A   Mostly Cloudy
9:35 AM 66.2 °F 57.2 °F 73% 29.67 in 10.0 mi SSE 12.7 mph 24.2 mph N/A   Overcast
9:55 AM 66.2 °F 57.2 °F 73% 29.67 in 10.0 mi SSE 17.3 mph 23.0 mph N/A   Overcast
10:15 AM 66.2 °F 57.2 °F 73% 29.66 in 10.0 mi South 12.7 mph 23.0 mph N/A   Overcast
10:35 AM 66.2 °F 57.2 °F 73% 29.65 in 10.0 mi SSE 15.0 mph 23.0 mph N/A   Overcast
10:55 AM 68.0 °F 57.2 °F 68% 29.63 in 10.0 mi South 16.1 mph 26.5 mph N/A   Overcast
11:15 AM 68.0 °F 57.2 °F 68% 29.60 in 10.0 mi SSE 15.0 mph 25.3 mph N/A   Mostly Cloudy
11:35 AM 68.0 °F 57.2 °F 68% 29.59 in 10.0 mi SSE 13.8 mph 27.6 mph N/A   Overcast
11:55 AM 68.0 °F 57.2 °F 68% 29.57 in 10.0 mi SSE 18.4 mph 26.5 mph N/A   Overcast
12:15 PM 68.0 °F 57.2 °F 68% 29.54 in 10.0 mi SSE 19.6 mph 26.5 mph N/A   Mostly Cloudy
12:35 PM 68.0 °F 57.2 °F 68% 29.53 in 10.0 mi SSE 16.1 mph 28.8 mph N/A   Mostly Cloudy
12:55 PM 64.4 °F 59.0 °F 83% 29.51 in 10.0 mi SSE 11.5 mph 24.2 mph N/A Rain Light Rain
1:15 PM 62.6 °F 60.8 °F 94% 29.50 in 7.0 mi WSW 5.8 mph - 0.03 in Rain , Thunderstorm Rain
1:35 PM 53.6 °F 51.8 °F 94% 29.57 in 3.0 mi WNW 24.2 mph 27.6 mph 0.22 in Rain , Thunderstorm Heavy Thunderstorms and Rain
1:55 PM 53.6 °F 51.8 °F 94% 29.59 in 3.0 mi WNW 8.1 mph 16.1 mph 0.67 in Rain Heavy Rain
2:15 PM 51.8 °F 51.8 °F 100% 29.53 in 7.0 mi NNW 8.1 mph - 0.06 in Rain , Thunderstorm Rain
2:35 PM 51.8 °F 51.8 °F 100% 29.54 in 5.0 mi Calm Calm - 0.13 in Rain , Thunderstorm Heavy Thunderstorms and Rain
2:55 PM 51.8 °F 51.8 °F 100% 29.56 in 7.0 mi ESE 8.1 mph - 0.19 in Rain Rain
3:15 PM 51.8 °F 51.8 °F 100% 29.55 in 5.0 mi ENE 3.5 mph - 0.05 in Rain Rain
3:35 PM 51.8 °F 51.8 °F 100% 29.54 in 7.0 mi East 4.6 mph - 0.09 in Rain Light Rain
3:55 PM 51.8 °F 51.8 °F 100% 29.55 in 5.0 mi Calm Calm - 0.13 in Rain Rain
4:15 PM 51.8 °F 51.8 °F 100% 29.53 in 7.0 mi East 4.6 mph - 0.03 in Rain Rain
4:35 PM 51.8 °F 51.8 °F 100% 29.52 in 7.0 mi East 3.5 mph - 0.07 in Rain Rain
4:55 PM 51.8 °F 51.8 °F 100% 29.51 in 7.0 mi Calm Calm - 0.13 in Rain Rain
5:15 PM 51.8 °F 51.8 °F 100% 29.54 in 7.0 mi SE 4.6 mph - 0.06 in Rain , Thunderstorm Thunderstorms and Rain
5:35 PM 51.8 °F 51.8 °F 100% 29.55 in 4.0 mi ESE 4.6 mph - 0.13 in Rain , Thunderstorm Rain
5:55 PM 51.8 °F 51.8 °F 100% 29.54 in 7.0 mi Calm Calm - 0.18 in Rain Rain
6:15 PM 51.8 °F 51.8 °F 100% 29.54 in 4.0 mi East 3.5 mph - 0.07 in Rain , Thunderstorm Rain
6:35 PM 51.8 °F 51.8 °F 100% 29.53 in 5.0 mi Calm Calm - 0.14 in Rain , Thunderstorm Rain
6:55 PM 51.8 °F 51.8 °F 100% 29.53 in 7.0 mi East 3.5 mph - 0.21 in Rain , Thunderstorm Rain
7:35 PM 51.8 °F 51.8 °F 100% 29.52 in 10.0 mi East 3.5 mph - 0.08 in Rain Rain
8:15 PM 50.0 °F 50.0 °F 100% 29.53 in 10.0 mi ESE 5.8 mph - 0.01 in Rain Light Rain
8:55 PM 50.0 °F 50.0 °F 100% 29.50 in 10.0 mi East 6.9 mph - 0.03 in Rain Light Rain
9:15 PM 50.0 °F 50.0 °F 100% 29.48 in 10.0 mi ESE 8.1 mph - 0.01 in Rain Light Rain
9:35 PM 50.0 °F 50.0 °F 100% 29.47 in 10.0 mi ESE 5.8 mph - 0.01 in Rain Light Rain
9:55 PM 50.0 °F 50.0 °F 100% 29.47 in 10.0 mi ESE 8.1 mph - 0.01 in Rain Rain
10:15 PM 50.0 °F 50.0 °F 100% 29.46 in 10.0 mi ESE 6.9 mph - 0.02 in Rain Rain
10:35 PM 50.0 °F 50.0 °F 100% 29.46 in 10.0 mi SE 8.1 mph - 0.04 in Rain Light Rain
10:55 PM 50.0 °F 50.0 °F 100% 29.47 in 10.0 mi SE 6.9 mph - 0.05 in Rain Light Rain
11:15 PM 50.0 °F 50.0 °F 100% 29.49 in 10.0 mi SSE 6.9 mph - N/A Rain Light Rain
11:35 PM 50.0 °F 50.0 °F 100% 29.51 in 10.0 mi South 10.4 mph - 0.01 in Rain Rain